Location: Caltech
(34.1382°N, 118.1253°W)
Time: 12:08:14
(UTC-08:00)

Uosat F - Visible Passes

Search period start: 21 December 2014 00:00
Search period end: 31 December 2014 00:00
Orbit: 751 x 763 km, 98.7° (Epoch: 19 December)

Date Brightness Start Highest point End Pass type
(mag) Time Alt. Az. Time Alt. Az. Time Alt. Az.
21 Dec 13.7 03:50:01 12° SSE 03:50:01 12° SSE 03:50:32 10° SSE visible
21 Dec 13.1 05:20:48 10° NNW 05:21:10 12° NNW 05:21:10 12° NNW visible
22 Dec 13.2 04:41:03 10° N 04:50:29 13° SSW 04:50:59 10° SSW visible
23 Dec 13.4 04:10:56 13° SSE 04:10:56 13° SSE 04:11:33 10° S visible
24 Dec 13.3 05:01:35 10° N 05:01:48 11° N 05:01:48 11° N visible
25 Dec 13.4 04:31:49 12° S 04:31:49 12° S 04:32:11 10° S visible
25 Dec 14.5 17:14:35 10° WSW 17:15:47 11° W 17:16:59 10° WNW visible
29 Dec 13.4 05:03:07 10° N 05:03:07 10° N 05:03:07 10° N visible
